COSMOS 1275 DEB, 42233

Orbit data source: Space-Track

COSMOS 1275 DEB, 42233 is space debris in LEO originally from a launch on Thu, 04 Jun 1981 UTC launched from the Plesetsk Missile And Space Complex (PKMTR). Debris objects in space refer to the collection of defunct objects orbiting the Earth. Examples of debris include non-operational satellites, rocket bodies, and fragments generated from explosions, collisions, or faulty payload assembly.

Loading next visibility...
COSMOS 1275 DEB details
Identifier
42233, 1981-053UZ
Orbit
LEO
Last TLE update1 day ago
Origin
Flag of CISGUKOS (CIS)
ManufacturerUnknown
MissionSpacecraft
Bus & MotorUnknown
MassUnknown
Launch date (UTC)
1981-06-04 (44 years ago)
Launch vehicleUnknown
Launch site
Plesetsk Missile And Space Complex (PKMTR)
Object type
Payload
Rocket body
Debris
Shape & HBRUnknown
Radar Cross SectionSmall (<0.1 m²)

Expand to show TLE details & history

TLE from 1 day ago
0 COSMOS 1275 DEB
1 42233U 81053UZ  24337.89269369  .00001817  00000-0  20530-2 0  9991
2 42233  83.0428  40.2028 0132721 251.3173 107.3533 13.66356816729527
Epoch: 2024-12-02T21:25Z
Definitive object data (Epoch: 2024-12-02T21:25:28.734Z)
Latitude-0.00006°
Longitude6.62304°
Altitude1,046.011 km
Speed7.314 km/s
True Right ascension02h 40m 48s
True Declination0° 00' 00"
Sunlit
Object was in full shadow at TLE epoch
Visualization TLE readout
Latitude-0.36545°
Longitude5.52458°
Altitude1,051.971 km
Speed7.308 km/s
Apparent Right ascension23h 53m 43s
Apparent Declination-32° 51' 30"
Sunlit
Object is in full shadow
Visualization observer readout
Local Sidereal Time06:28:29
Azimuth248.048° W
Elevation-26.456°
Doppler factor1
Orbital elements
Apogee altitude1,107.89 km
Perigee altitude911.782 km
Semi-major axis7,387.973 km
Eccentricity0.0132721
Inclination83.0428°
RAAN40.2028°
Arg. of periapsis251.3173°
True anomaly108.79764°
Mean anomaly107.3533°
Eccentric anomaly108.0762°
Mean motion3.41787 °/min
BSTAR0.002053
Orbital period105.33 mins
Loading maneuver chart data...
Loading historical data...
Loading historical data...
Loading historical data...
Loading historical data...
Loading historical data...
Loading historical data...
Loading historical data...

COSMOS 1275 DEB Visibility forecast

Observer location: undefined°, undefined

Span
Click to sort rows by Start time (UTC) header in descending order
Start Az.
Max El. time (UTC)
Max El. Az.
Max El.
End time (UTC)
End Az.
5 mins2024-12-04 14:28:21.253Z40.879° NE2024-12-04 14:30:21.253Z59.707° ENE13.831°2024-12-04 14:33:21.253Z88.971° E
12 mins2024-12-04 16:12:21.253Z352.703° N2024-12-04 16:18:21.253Z184.441° SSW44.67°2024-12-04 16:24:21.253Z175.736° S
11 mins2024-12-05 04:01:21.253Z145.296° SSE2024-12-05 04:06:21.253Z86.152° E30.561°2024-12-05 04:12:21.253Z24.217° NE
11 mins2024-12-05 05:47:21.253Z223.674° SW2024-12-05 05:52:21.253Z284.245° WNW31.578°2024-12-05 05:58:21.253Z350.008° N
|